Weather History for KGTB - December, 2012

Change the Weather History Date:

Tuesday, December 4, 2012

  Actual Average Record
Temperature  
Mean Temperature 54 °F -  
Max Temperature 68 °F 35 °F 68 °F (2012)
Min Temperature 40 °F 21 °F -7 °F (2002)
Degree Days  
Heating Degree Days 11    
Growing Degree Days 4 (Base 50)    
Moisture  
Dew Point 51 °F    
Average Humidity 93    
Maximum Humidity 100    
Minimum Humidity 56    
Precipitation  
Precipitation 0.58 in - - ()
Sea Level Pressure  
Sea Level Pressure 29.94 in    
Wind  
Wind Speed 12 mph (SW)    
Max Wind Speed 17 mph    
Max Gust Speed 28 mph    
Visibility 9 miles    
Events Rain    
Averages and records for this station are not official NWS values.
T = Trace of Precipitation, MM = Missing Value Source: NWS Daily Summary

Daily Weather History Graph

Daily Weather History Graph

Search for Another Location

Airport or City:

Trip Planner

Search our weather history database for the weather conditions in past years. The results will help you decide how hot, cold, wet, or windy it might be!

Date:

Astronomy

Dec. 04, 2012 Rise Set
Actual Time 7:21 AM EST 4:24 PM EST
Civil Twilight 6:48 AM EST 4:57 PM EST
Nautical Twilight 6:12 AM EST 5:33 PM EST
Astronomical Twilight 5:37 AM EST 6:08 PM EST
Moon 10:18 PM EST (12/4) 11:07 AM EST (12/4)
Length of Visible Light 10h 08m
Length of Day
9h 03m
Waning Gibbous, 69% of the Moon is Illuminated
Dec 4
Waning Gibbous
Dec 6
Last Quarter
Dec 13
New
Dec 20
First Quarter
Dec 28
Full

Hourly Weather History & Observations

Time (EST) Temp. Windchill Dew Point Humidity Pressure Visibility Wind Dir Wind Speed Gust Speed Precip Events Conditions
12:55 AM 40.5 °F 32.1 °F 39.4 °F 96% 30.13 in 10.0 mi SE 16.1 mph - N/A   Mostly Cloudy
1:55 AM 41.2 °F 33.0 °F 39.9 °F 95% 30.10 in 10.0 mi SE 16.1 mph - N/A   Clear
2:55 AM 42.8 °F 35.8 °F 41.2 °F 94% 30.09 in 10.0 mi SE 13.8 mph - N/A   Mostly Cloudy
3:55 AM 44.1 °F 37.7 °F 42.4 °F 94% 30.08 in 10.0 mi SSE 12.7 mph - N/A   Mostly Cloudy
4:52 AM 44.6 °F 38.4 °F 42.8 °F 93% 30.06 in 10.0 mi SSE 12.7 mph - N/A   Overcast
4:54 AM 44.6 °F 38.8 °F 44.6 °F 100% 30.07 in 10.0 mi SSE 11.5 mph - N/A Rain Light Rain
4:55 AM 45.3 °F 39.7 °F 43.7 °F 94% 30.07 in 10.0 mi SSE 11.5 mph - 0.00 in Rain Light Rain
5:00 AM 44.6 °F 38.4 °F 44.6 °F 100% 30.07 in 5.0 mi SE 12.7 mph - N/A Rain Light Rain
5:27 AM 44.6 °F 37.4 °F 44.6 °F 100% 30.05 in 10.0 mi SE 16.1 mph - N/A   Overcast
5:31 AM 44.6 °F 37.8 °F 44.6 °F 100% 30.05 in 10.0 mi SE 15.0 mph - N/A   Overcast
5:55 AM 45.1 °F 38.1 °F 45.1 °F 100% 30.04 in 10.0 mi SE 16.1 mph - 0.05 in   Mostly Cloudy
7:55 AM 46.6 °F - 46.6 °F 100% 30.03 in 10.0 mi SSE 12.7 mph - N/A   Clear
8:55 AM 50.5 °F - 50.2 °F 99% 30.02 in 10.0 mi SSE 13.8 mph - N/A   Clear
9:55 AM 54.1 °F - 51.1 °F 89% 30.02 in 10.0 mi SSE 11.5 mph - N/A   Clear
10:41 AM 62.6 °F - 53.6 °F 72% 30.00 in 10.0 mi SSW 16.1 mph - N/A   Clear
10:55 AM 64.6 °F - 52.7 °F 65% 30.00 in 10.0 mi SSW 16.1 mph 24.2 mph N/A   Clear
11:55 AM 65.3 °F - 52.7 °F 64% 29.96 in 10.0 mi South 16.1 mph 23.0 mph 0.01 in   Clear
12:55 PM 66.0 °F - 52.0 °F 60% 29.93 in 10.0 mi SSW 11.5 mph - N/A   Clear
1:55 PM 68.0 °F - 51.8 °F 56% 29.89 in 10.0 mi SSW 17.3 mph 23.0 mph N/A   Clear
2:55 PM 64.9 °F - 52.5 °F 64% 29.88 in 10.0 mi SSW 16.1 mph 27.6 mph N/A   Mostly Cloudy
3:55 PM 64.6 °F - 50.4 °F 60% 29.86 in 10.0 mi South 17.3 mph - N/A   Overcast
4:24 PM 64.4 °F - 50.0 °F 59% 29.87 in 10.0 mi South 10.4 mph - N/A   Light Drizzle
4:38 PM 62.6 °F - 51.8 °F 68% 29.88 in 10.0 mi West 9.2 mph 20.7 mph N/A   Overcast
4:55 PM 58.6 °F - 52.9 °F 81% 29.90 in 10.0 mi WSW 12.7 mph 19.6 mph 0.00 in   Overcast
5:06 PM 57.2 °F - 53.6 °F 88% 29.90 in 10.0 mi WSW 6.9 mph - N/A Rain Light Rain
5:21 PM 57.2 °F - 55.4 °F 94% 29.89 in 10.0 mi WSW 5.8 mph - N/A   Mostly Cloudy
5:25 PM 57.2 °F - 55.4 °F 94% 29.89 in 10.0 mi WSW 8.1 mph - N/A Rain Light Rain
5:30 PM 57.2 °F - 55.4 °F 94% 29.88 in 10.0 mi SW 8.1 mph - N/A Rain Light Rain
5:35 PM 57.2 °F - 55.4 °F 94% 29.88 in 10.0 mi SW 9.2 mph - N/A   Light Drizzle
5:37 PM 55.4 °F - 55.4 °F 100% 29.88 in 10.0 mi SW 10.4 mph - N/A   Overcast
5:47 PM 55.4 °F - 55.4 °F 100% 29.89 in 10.0 mi WSW 11.5 mph - N/A   Overcast
5:50 PM 55.4 °F - 55.4 °F 100% 29.88 in 10.0 mi WSW 9.2 mph - N/A   Overcast
5:55 PM 56.5 °F - 55.0 °F 95% 29.89 in 10.0 mi WSW 10.4 mph - 0.00 in   Overcast
6:03 PM 57.2 °F - 55.4 °F 94% 29.88 in 10.0 mi SW 9.2 mph - N/A   Overcast
6:10 PM 55.4 °F - 55.4 °F 100% 29.89 in 10.0 mi WSW 9.2 mph - N/A   Overcast
6:14 PM 55.4 °F - 55.4 °F 100% 29.89 in 10.0 mi WSW 9.2 mph - N/A   Light Drizzle
6:21 PM 55.4 °F - 55.4 °F 100% 29.89 in 10.0 mi WSW 8.1 mph - N/A Rain Light Rain
6:50 PM 55.4 °F - 55.4 °F 100% 29.89 in 6.0 mi SW 8.1 mph - N/A Rain Light Rain
6:54 PM 55.4 °F - 55.4 °F 100% 29.89 in 4.0 mi SW 11.5 mph - N/A Rain Heavy Rain
6:55 PM 54.5 °F - 54.5 °F 100% 29.90 in 4.0 mi SW 11.5 mph - 0.05 in Rain Heavy Rain
7:15 PM 53.6 °F - 53.6 °F 100% 29.89 in 7.0 mi SW 6.9 mph - N/A Rain Light Rain
7:16 PM 53.6 °F - 53.6 °F 100% 29.89 in 7.0 mi SW 5.8 mph - N/A Rain Light Rain
7:28 PM 53.6 °F - 53.6 °F 100% 29.88 in 4.0 mi SW 4.6 mph - N/A Rain Rain
7:46 PM 53.6 °F - 53.6 °F 100% 29.90 in 4.0 mi WSW 8.1 mph - N/A Rain Heavy Rain
7:55 PM 53.2 °F - 53.2 °F 100% 29.90 in 3.0 mi WSW 9.2 mph - 0.20 in Rain Heavy Rain
8:03 PM 53.6 °F - 53.6 °F 100% 29.90 in 5.0 mi West 8.1 mph 16.1 mph N/A Rain Rain
8:24 PM 51.8 °F - 51.8 °F 100% 29.91 in 10.0 mi West 9.2 mph 23.0 mph N/A Rain Light Rain
8:30 PM 50.0 °F - 50.0 °F 100% 29.92 in 9.0 mi West 9.2 mph - N/A Rain Rain
8:31 PM 50.0 °F - 50.0 °F 100% 29.92 in 9.0 mi West 10.4 mph - N/A Rain Rain
8:32 PM 50.0 °F - 50.0 °F 100% 29.92 in 9.0 mi West 11.5 mph - N/A Rain Rain
8:35 PM 50.0 °F - 50.0 °F 100% 29.92 in 8.0 mi West 11.5 mph - N/A Rain Rain
8:36 PM 50.0 °F - 50.0 °F 100% 29.92 in 7.0 mi West 11.5 mph - N/A Rain Heavy Rain
8:38 PM 50.0 °F - 50.0 °F 100% 29.92 in 6.0 mi WNW 9.2 mph - N/A Rain Heavy Rain
8:43 PM 50.0 °F - 50.0 °F 100% 29.92 in 6.0 mi West 9.2 mph - N/A Rain Heavy Rain
8:45 PM 50.0 °F - 50.0 °F 100% 29.92 in 6.0 mi West 8.1 mph - N/A Rain Rain
8:46 PM 50.0 °F - 50.0 °F 100% 29.92 in 6.0 mi West 8.1 mph - N/A Rain Rain
8:47 PM 50.0 °F - 50.0 °F 100% 29.92 in 6.0 mi West 8.1 mph - N/A Rain Rain
8:48 PM 50.0 °F - 50.0 °F 100% 29.92 in 7.0 mi West 8.1 mph - N/A Rain Rain
8:53 PM 50.0 °F - 50.0 °F 100% 29.92 in 9.0 mi West 9.2 mph - N/A Rain Light Rain
8:54 PM 50.0 °F - 50.0 °F 100% 29.92 in 9.0 mi West 6.9 mph - N/A Rain Light Rain
8:55 PM 49.5 °F - 49.5 °F 100% 29.92 in 9.0 mi West 8.1 mph - 0.10 in Rain Light Rain
9:55 PM 48.0 °F - 48.0 °F 100% 29.91 in 10.0 mi SSW 4.6 mph - 0.04 in Rain Light Rain
10:44 PM 48.2 °F - 48.2 °F 100% 29.92 in 8.0 mi SW 6.9 mph - N/A Rain Rain
10:55 PM 47.7 °F - 47.5 °F 99% 29.92 in 7.0 mi WSW 8.1 mph - 0.06 in Rain Rain
11:08 PM 48.2 °F - 48.2 °F 100% 29.91 in 7.0 mi SW 10.4 mph - N/A Rain Rain
11:55 PM 46.9 °F - 45.9 °F 96% 29.89 in 10.0 mi SSW 12.7 mph - 0.07 in Rain Light Rain